FLI456 EKVG-EKCH

Flight info

Callsign FLI456
Flight time 1h 47m
Altitude 37000
Route ODEVA DCT GUNPA/N0441F370 DCT TESPI
Aircraft A320/M-SDE3FGHIRWY/LB1

Departure

Time 2026-04-26 18:14
Airport Vágar Airport (EKVG)

Arrival

Time 2026-04-26 20:01
Airport Copenhagen Kastrup Airport (EKCH)
Time Latitude Longitude Altitude Speed Heading
2026-04-26 17:45 62.06667 -7.27868 279 ft 0 kts 28°
2026-04-26 18:01 62.06654 -7.27882 281 ft 4 kts 13°
2026-04-26 18:02 62.06631 -7.27879 283 ft 4 kts 317°
2026-04-26 18:02 62.06623 -7.27861 280 ft 0 kts 297°
2026-04-26 18:09 62.06646 -7.27976 279 ft 16 kts 288°
2026-04-26 18:09 62.06598 -7.28087 278 ft 10 kts 187°
2026-04-26 18:10 62.06555 -7.28102 278 ft 4 kts 195°
2026-04-26 18:10 62.06547 -7.28108 278 ft 0 kts 199°
2026-04-26 18:10 62.06490 -7.28187 280 ft 21 kts 242°
2026-04-26 18:10 62.06531 -7.28399 279 ft 21 kts 298°
2026-04-26 18:11 62.06613 -7.28738 276 ft 18 kts 297°
2026-04-26 18:11 62.06696 -7.29077 269 ft 22 kts 298°
2026-04-26 18:11 62.06726 -7.29211 269 ft 3 kts 37°
2026-04-26 18:11 62.06711 -7.29134 269 ft 0 kts 119°
2026-04-26 18:13 62.06616 -7.28754 274 ft 70 kts 118°
2026-04-26 18:13 62.06268 -7.27349 302 ft 139 kts 119°
2026-04-26 18:13 62.05945 -7.26057 521 ft 158 kts 121°
2026-04-26 18:14 62.05091 -7.23408 1433 ft 161 kts 132°
2026-04-26 18:14 62.04174 -7.22190 2137 ft 150 kts 168°
2026-04-26 18:14 62.03187 -7.22239 2863 ft 140 kts 200°
2026-04-26 18:14 62.02275 -7.22981 3354 ft 141 kts 199°
2026-04-26 18:15 62.01312 -7.23481 3832 ft 144 kts 191°
2026-04-26 18:15 62.00311 -7.23667 4315 ft 146 kts 183°
2026-04-26 18:15 61.99293 -7.23519 4803 ft 148 kts 174°
2026-04-26 18:15 61.98282 -7.23044 5273 ft 150 kts 167°
2026-04-26 18:16 61.97301 -7.22228 5728 ft 153 kts 158°
2026-04-26 18:16 61.95539 -7.19576 6625 ft 159 kts 138°
2026-04-26 18:16 61.94811 -7.17775 7029 ft 162 kts 128°
2026-04-26 18:17 61.94229 -7.15702 7452 ft 165 kts 118°
2026-04-26 18:17 61.93808 -7.13369 7745 ft 178 kts 108°
2026-04-26 18:17 61.93565 -7.10618 7876 ft 202 kts 99°
2026-04-26 18:17 61.93376 -7.07477 8028 ft 226 kts 99°
2026-04-26 18:18 61.93163 -7.03998 8280 ft 249 kts 99°
2026-04-26 18:18 61.92924 -7.00176 8594 ft 273 kts 99°
2026-04-26 18:18 61.92666 -6.96052 9093 ft 287 kts 99°
2026-04-26 18:18 61.92403 -6.91803 9849 ft 293 kts 99°
2026-04-26 18:19 61.92133 -6.87464 10414 ft 306 kts 99°
2026-04-26 18:19 61.91839 -6.82814 10632 ft 329 kts 99°
2026-04-26 18:19 61.91526 -6.77889 11049 ft 343 kts 99°
2026-04-26 18:19 61.91198 -6.72835 11726 ft 348 kts 99°
2026-04-26 18:20 61.90862 -6.67734 12455 ft 351 kts 99°
2026-04-26 18:20 61.90523 -6.62575 13183 ft 354 kts 99°
2026-04-26 18:20 61.90068 -6.57426 13897 ft 357 kts 104°
2026-04-26 18:20 61.89881 -6.55683 14116 ft 358 kts 104°
2026-04-26 18:21 61.88940 -6.47072 15172 ft 363 kts 105°
2026-04-26 18:21 61.88363 -6.41847 15830 ft 364 kts 105°
2026-04-26 18:21 61.87781 -6.36613 16529 ft 366 kts 105°
2026-04-26 18:21 61.87191 -6.31358 17169 ft 368 kts 105°
2026-04-26 18:22 61.86593 -6.26056 17788 ft 371 kts 106°
2026-04-26 18:22 61.85988 -6.20713 18389 ft 375 kts 105°
2026-04-26 18:22 61.85380 -6.15327 18915 ft 378 kts 105°
2026-04-26 18:22 61.84766 -6.09889 19454 ft 380 kts 105°
2026-04-26 18:23 61.84148 -6.04430 19993 ft 383 kts 105°
2026-04-26 18:23 61.83523 -5.98926 20543 ft 385 kts 105°
2026-04-26 18:23 61.82891 -5.93393 21087 ft 388 kts 105°
2026-04-26 18:23 61.82253 -5.87834 21623 ft 390 kts 106°
2026-04-26 18:24 61.81606 -5.82238 22144 ft 393 kts 106°
2026-04-26 18:24 61.80953 -5.76603 22666 ft 396 kts 106°
2026-04-26 18:24 61.80293 -5.70932 23157 ft 398 kts 106°
2026-04-26 18:24 61.79625 -5.65224 23602 ft 402 kts 106°
2026-04-26 18:25 61.78952 -5.59473 24018 ft 404 kts 106°
2026-04-26 18:25 61.78274 -5.53692 24424 ft 406 kts 106°
2026-04-26 18:25 61.77591 -5.47887 24825 ft 408 kts 106°
2026-04-26 18:25 61.76902 -5.42065 25219 ft 410 kts 106°
2026-04-26 18:26 61.76212 -5.36298 25599 ft 411 kts 106°
2026-04-26 18:26 61.75498 -5.30359 25982 ft 413 kts 106°
2026-04-26 18:26 61.74791 -5.24481 26352 ft 414 kts 106°
2026-04-26 18:26 61.74089 -5.18650 26712 ft 416 kts 106°
2026-04-26 18:27 61.73365 -5.12652 27077 ft 418 kts 107°
2026-04-26 18:27 61.72652 -5.06778 27443 ft 419 kts 107°
2026-04-26 18:27 61.71924 -5.00821 27783 ft 421 kts 107°
2026-04-26 18:27 61.71188 -4.94824 28085 ft 423 kts 107°
2026-04-26 18:28 61.70445 -4.88804 28380 ft 425 kts 107°
2026-04-26 18:28 61.69697 -4.82766 28705 ft 427 kts 107°
2026-04-26 18:28 61.68944 -4.76698 29032 ft 429 kts 107°
2026-04-26 18:28 61.68186 -4.70611 29329 ft 431 kts 107°
2026-04-26 18:29 61.67424 -4.64500 29616 ft 432 kts 107°
2026-04-26 18:29 61.66655 -4.58369 29905 ft 434 kts 107°
2026-04-26 18:29 61.65879 -4.52211 30190 ft 436 kts 107°
2026-04-26 18:29 61.65097 -4.46040 30406 ft 437 kts 107°
2026-04-26 18:30 61.64311 -4.39841 30612 ft 439 kts 107°
2026-04-26 18:30 61.63521 -4.33634 30814 ft 441 kts 107°
2026-04-26 18:30 61.62723 -4.27390 31005 ft 443 kts 107°
2026-04-26 18:30 61.61919 -4.21143 31220 ft 443 kts 108°
2026-04-26 18:31 61.61382 -4.16993 31337 ft 445 kts 108°
2026-04-26 18:31 61.60568 -4.10722 31563 ft 446 kts 107°
2026-04-26 18:31 61.59750 -4.04431 31793 ft 446 kts 108°
2026-04-26 18:31 61.58929 -3.98142 32037 ft 447 kts 108°
2026-04-26 18:32 61.58107 -3.91853 32312 ft 447 kts 107°
2026-04-26 18:32 61.57280 -3.85563 32556 ft 447 kts 108°
2026-04-26 18:32 61.56447 -3.79276 32796 ft 448 kts 108°
2026-04-26 18:32 61.55601 -3.72894 33055 ft 448 kts 109°
2026-04-26 18:33 61.54766 -3.66609 33328 ft 448 kts 108°
2026-04-26 18:33 61.53927 -3.60314 33565 ft 448 kts 109°
2026-04-26 18:33 61.53083 -3.54025 33822 ft 448 kts 109°
2026-04-26 18:33 61.52236 -3.47732 34016 ft 450 kts 108°
2026-04-26 18:34 61.51392 -3.41497 34201 ft 451 kts 108°
2026-04-26 18:34 61.50532 -3.35175 34402 ft 452 kts 108°
2026-04-26 18:34 61.49666 -3.28843 34581 ft 453 kts 109°
2026-04-26 18:34 61.48795 -3.22509 34781 ft 453 kts 108°
2026-04-26 18:35 61.47922 -3.16175 34972 ft 454 kts 107°
2026-04-26 18:35 61.47046 -3.09825 35137 ft 455 kts 109°
2026-04-26 18:35 61.46167 -3.03464 35321 ft 455 kts 109°
2026-04-26 18:35 61.45283 -2.97107 35509 ft 455 kts 108°
2026-04-26 18:36 61.44395 -2.90750 35674 ft 456 kts 109°
2026-04-26 18:36 61.43503 -2.84396 35825 ft 457 kts 109°
2026-04-26 18:36 61.42608 -2.78016 35988 ft 457 kts 108°
2026-04-26 18:36 61.41706 -2.71642 36130 ft 458 kts 109°
2026-04-26 18:37 61.40797 -2.65252 36258 ft 460 kts 108°
2026-04-26 18:37 61.39883 -2.58862 36410 ft 460 kts 108°
2026-04-26 18:37 61.38966 -2.52467 36580 ft 460 kts 108°
2026-04-26 18:37 61.38050 -2.46067 36731 ft 461 kts 108°
2026-04-26 18:38 61.37132 -2.39667 36883 ft 461 kts 108°
2026-04-26 18:38 61.36210 -2.33275 37051 ft 461 kts 109°
2026-04-26 18:38 61.35280 -2.26880 37206 ft 461 kts 109°
2026-04-26 18:38 61.34345 -2.20488 37249 ft 462 kts 108°
2026-04-26 18:39 61.32465 -2.07707 37237 ft 462 kts 109°
2026-04-26 18:39 61.30575 -1.94894 37256 ft 464 kts 109°
2026-04-26 18:40 61.28676 -1.82091 37255 ft 463 kts 109°
2026-04-26 18:40 61.26761 -1.69294 37257 ft 463 kts 109°
2026-04-26 18:41 61.24834 -1.56523 37261 ft 464 kts 109°
2026-04-26 18:41 61.22885 -1.43766 37265 ft 464 kts 109°
2026-04-26 18:42 61.20938 -1.31093 37270 ft 464 kts 109°
2026-04-26 18:42 61.18975 -1.18355 37287 ft 464 kts 109°
2026-04-26 18:43 61.17000 -1.05614 37296 ft 464 kts 109°
2026-04-26 18:43 61.15012 -0.92897 37296 ft 464 kts 109°
2026-04-26 18:44 61.13018 -0.80294 37304 ft 464 kts 109°
2026-04-26 18:44 61.10995 -0.67615 37302 ft 464 kts 110°
2026-04-26 18:45 61.08967 -0.54950 37313 ft 464 kts 110°
2026-04-26 18:45 61.06944 -0.42357 37291 ft 452 kts 110°
2026-04-26 18:46 61.05966 -0.36305 37294 ft 439 kts 110°
2026-04-26 18:46 61.05005 -0.30380 37293 ft 433 kts 110°
2026-04-26 18:46 61.03087 -0.18654 37291 ft 431 kts 110°
2026-04-26 18:47 61.01151 -0.06964 37295 ft 431 kts 111°
2026-04-26 18:47 60.98456 0.03959 37303 ft 427 kts 128°
2026-04-26 18:48 60.94795 0.13590 37299 ft 427 kts 130°
2026-04-26 18:48 60.91101 0.23185 37300 ft 430 kts 130°
2026-04-26 18:49 60.87366 0.32872 37310 ft 440 kts 130°
2026-04-26 18:49 60.83522 0.42795 37313 ft 449 kts 130°
2026-04-26 18:50 60.79583 0.52888 37313 ft 457 kts 130°
2026-04-26 18:50 60.75590 0.63093 37311 ft 460 kts 130°
2026-04-26 18:51 60.71581 0.73327 37313 ft 463 kts 130°
2026-04-26 18:51 60.67537 0.83551 37316 ft 463 kts 131°
2026-04-26 18:52 60.63486 0.93749 37315 ft 458 kts 131°
2026-04-26 18:52 60.61514 0.98711 37305 ft 443 kts 131°
2026-04-26 18:52 60.59594 1.03528 37310 ft 435 kts 131°
2026-04-26 18:53 60.55754 1.13129 37327 ft 442 kts 131°
2026-04-26 18:53 60.51819 1.22910 37327 ft 452 kts 131°
2026-04-26 18:54 60.47788 1.32852 37325 ft 460 kts 131°
2026-04-26 18:54 60.43714 1.42928 37325 ft 464 kts 131°
2026-04-26 18:55 60.39609 1.53053 37326 ft 466 kts 131°
2026-04-26 18:55 60.35481 1.63153 37329 ft 466 kts 131°
2026-04-26 18:56 60.31344 1.73237 37330 ft 466 kts 131°
2026-04-26 18:56 60.27197 1.83302 37333 ft 467 kts 131°
2026-04-26 18:57 60.23743 1.91643 37344 ft 467 kts 132°
2026-04-26 18:57 60.18867 2.03356 37347 ft 467 kts 132°
2026-04-26 18:58 60.14692 2.13338 37335 ft 468 kts 132°
2026-04-26 18:58 60.10494 2.23339 37336 ft 469 kts 132°
2026-04-26 18:59 60.06287 2.33324 37339 ft 469 kts 132°
2026-04-26 18:59 60.02103 2.43222 37338 ft 469 kts 132°
2026-04-26 19:00 59.97878 2.53162 37333 ft 469 kts 132°
2026-04-26 19:00 59.93616 2.63136 37337 ft 469 kts 132°
2026-04-26 19:01 59.89404 2.72967 37339 ft 470 kts 132°
2026-04-26 19:01 59.85151 2.82844 37321 ft 470 kts 133°
2026-04-26 19:02 59.80885 2.92720 37323 ft 471 kts 133°
2026-04-26 19:02 59.77327 3.00924 37324 ft 472 kts 133°
2026-04-26 19:03 59.72303 3.12438 37325 ft 473 kts 133°
2026-04-26 19:03 59.67993 3.22283 37339 ft 473 kts 133°
2026-04-26 19:04 59.63673 3.32095 37342 ft 473 kts 133°
2026-04-26 19:04 59.59341 3.41906 37342 ft 474 kts 133°
2026-04-26 19:05 59.52825 3.56572 37324 ft 474 kts 133°
2026-04-26 19:06 59.48462 3.66332 37335 ft 475 kts 133°
2026-04-26 19:06 59.44082 3.76092 37343 ft 476 kts 133°
2026-04-26 19:07 59.39695 3.85836 37344 ft 476 kts 133°
2026-04-26 19:07 59.35297 3.95567 37347 ft 477 kts 133°
2026-04-26 19:08 59.30886 4.05283 37348 ft 477 kts 134°
2026-04-26 19:08 59.26459 4.14972 37348 ft 478 kts 134°
2026-04-26 19:09 59.22028 4.24652 37335 ft 478 kts 134°
2026-04-26 19:09 59.17588 4.34326 37342 ft 479 kts 134°
2026-04-26 19:10 59.13160 4.43913 37345 ft 479 kts 134°
2026-04-26 19:10 59.08692 4.53539 37353 ft 479 kts 134°
2026-04-26 19:11 59.04208 4.63154 37340 ft 480 kts 134°
2026-04-26 19:11 58.99720 4.72746 37341 ft 480 kts 134°
2026-04-26 19:12 58.95225 4.82326 37343 ft 480 kts 134°
2026-04-26 19:12 58.90717 4.91888 37318 ft 480 kts 134°
2026-04-26 19:13 58.86202 5.01409 37326 ft 481 kts 134°
2026-04-26 19:13 58.81675 5.10917 37334 ft 481 kts 134°
2026-04-26 19:14 58.77134 5.20417 37326 ft 482 kts 134°
2026-04-26 19:14 58.72591 5.29909 37317 ft 482 kts 134°
2026-04-26 19:15 58.68032 5.39378 37313 ft 482 kts 135°
2026-04-26 19:15 58.63458 5.48819 37314 ft 483 kts 135°
2026-04-26 19:16 58.58877 5.58236 37309 ft 483 kts 135°
2026-04-26 19:16 58.54298 5.67640 37318 ft 483 kts 135°
2026-04-26 19:17 58.49704 5.77040 37308 ft 483 kts 135°
2026-04-26 19:17 58.45881 5.84819 37312 ft 483 kts 135°
2026-04-26 19:18 58.41271 5.94147 37312 ft 483 kts 135°
2026-04-26 19:18 58.36659 6.03455 37310 ft 483 kts 135°
2026-04-26 19:19 58.32042 6.12737 37291 ft 482 kts 135°
2026-04-26 19:19 58.27426 6.21986 37289 ft 482 kts 135°
2026-04-26 19:20 58.22798 6.31216 37291 ft 483 kts 135°
2026-04-26 19:20 58.18159 6.40430 37288 ft 483 kts 135°
2026-04-26 19:21 58.13520 6.49617 37282 ft 483 kts 135°
2026-04-26 19:21 58.08864 6.58781 37287 ft 483 kts 135°
2026-04-26 19:22 58.04204 6.67918 37278 ft 483 kts 135°
2026-04-26 19:22 57.99547 6.77036 37269 ft 483 kts 135°
2026-04-26 19:23 57.94880 6.86138 37270 ft 483 kts 135°
2026-04-26 19:23 57.90196 6.95201 37283 ft 482 kts 136°
2026-04-26 19:24 57.85515 7.04216 37288 ft 481 kts 136°
2026-04-26 19:24 57.78516 7.17693 37287 ft 480 kts 136°
2026-04-26 19:25 57.74633 7.25116 37288 ft 480 kts 136°
2026-04-26 19:25 57.69165 7.35526 37262 ft 480 kts 136°
2026-04-26 19:26 57.64479 7.44427 37266 ft 480 kts 136°
2026-04-26 19:26 57.59788 7.53301 37263 ft 480 kts 136°
2026-04-26 19:27 57.55089 7.62159 37274 ft 481 kts 136°
2026-04-26 19:27 57.50380 7.70989 37273 ft 481 kts 136°
2026-04-26 19:28 57.45663 7.79799 37283 ft 481 kts 136°
2026-04-26 19:28 57.40940 7.88581 37288 ft 481 kts 136°
2026-04-26 19:29 57.36242 7.97300 37263 ft 481 kts 136°
2026-04-26 19:29 57.31506 8.06060 37277 ft 481 kts 136°
2026-04-26 19:30 57.26754 8.14778 37279 ft 481 kts 136°
2026-04-26 19:30 57.22761 8.22066 37278 ft 481 kts 136°
2026-04-26 19:31 57.17233 8.32165 37306 ft 481 kts 136°
2026-04-26 19:31 57.12465 8.40855 37305 ft 483 kts 136°
2026-04-26 19:32 57.07683 8.49531 37287 ft 483 kts 136°
2026-04-26 19:32 57.02891 8.58162 37285 ft 482 kts 136°
2026-04-26 19:33 56.98096 8.66776 37282 ft 482 kts 136°
2026-04-26 19:33 56.95683 8.71098 36593 ft 490 kts 137°
2026-04-26 19:33 56.93257 8.75434 35921 ft 483 kts 137°
2026-04-26 19:34 56.90870 8.79704 34857 ft 481 kts 137°
2026-04-26 19:34 56.88478 8.83978 33645 ft 481 kts 137°
2026-04-26 19:34 56.86249 8.88556 32305 ft 483 kts 127°
2026-04-26 19:34 56.84240 8.93480 30913 ft 484 kts 127°
2026-04-26 19:35 56.82229 8.98439 29362 ft 486 kts 127°
2026-04-26 19:35 56.80219 9.03402 27654 ft 488 kts 127°
2026-04-26 19:35 56.78196 9.08394 25889 ft 491 kts 127°
2026-04-26 19:35 56.76164 9.13406 24164 ft 494 kts 126°
2026-04-26 19:36 56.74110 9.18453 23179 ft 498 kts 126°
2026-04-26 19:36 56.72713 9.21870 22971 ft 497 kts 127°
2026-04-26 19:36 56.69979 9.28534 22617 ft 497 kts 127°
2026-04-26 19:36 56.67894 9.33602 22345 ft 503 kts 127°
2026-04-26 19:37 56.65787 9.38710 22093 ft 506 kts 127°
2026-04-26 19:37 56.63667 9.43830 21833 ft 508 kts 127°
2026-04-26 19:37 56.61539 9.48959 21569 ft 508 kts 127°
2026-04-26 19:37 56.59408 9.54082 21305 ft 508 kts 127°
2026-04-26 19:38 56.57280 9.59189 21050 ft 507 kts 127°
2026-04-26 19:38 56.55166 9.64260 20787 ft 496 kts 127°
2026-04-26 19:38 56.53125 9.69155 20527 ft 478 kts 127°
2026-04-26 19:38 56.51151 9.73881 20306 ft 462 kts 127°
2026-04-26 19:39 56.49250 9.78426 20284 ft 443 kts 127°
2026-04-26 19:39 56.47425 9.82772 20290 ft 425 kts 127°
2026-04-26 19:39 56.45667 9.86941 20300 ft 411 kts 127°
2026-04-26 19:39 56.43898 9.91137 20284 ft 430 kts 127°
2026-04-26 19:40 56.42046 9.95527 20236 ft 450 kts 127°
2026-04-26 19:40 56.40096 10.00139 19994 ft 473 kts 127°
2026-04-26 19:40 56.38080 10.04914 19744 ft 483 kts 127°
2026-04-26 19:40 56.36030 10.09757 19507 ft 487 kts 127°
2026-04-26 19:41 56.33969 10.14605 19260 ft 488 kts 127°
2026-04-26 19:41 56.31903 10.19457 19015 ft 488 kts 127°
2026-04-26 19:41 56.29834 10.24306 18781 ft 489 kts 127°
2026-04-26 19:41 56.28460 10.27520 18623 ft 489 kts 127°
2026-04-26 19:42 56.25682 10.33998 18264 ft 488 kts 127°
2026-04-26 19:42 56.23609 10.38816 17998 ft 487 kts 127°
2026-04-26 19:42 56.21556 10.43566 17721 ft 476 kts 127°
2026-04-26 19:42 56.19532 10.48248 17456 ft 473 kts 127°
2026-04-26 19:43 56.17514 10.52913 17212 ft 473 kts 127°
2026-04-26 19:43 56.15526 10.57515 16940 ft 473 kts 127°
2026-04-26 19:43 56.13510 10.62176 16678 ft 473 kts 127°
2026-04-26 19:43 56.11489 10.66831 16425 ft 471 kts 127°
2026-04-26 19:44 56.09510 10.71374 16140 ft 454 kts 128°
2026-04-26 19:44 56.07570 10.75817 15880 ft 440 kts 128°
2026-04-26 19:44 56.05724 10.80036 15632 ft 435 kts 128°
2026-04-26 19:44 56.03864 10.84280 15383 ft 433 kts 128°
2026-04-26 19:45 56.02010 10.88508 15138 ft 431 kts 128°
2026-04-26 19:45 56.00162 10.92718 14892 ft 429 kts 128°
2026-04-26 19:45 55.98321 10.96909 14644 ft 428 kts 128°
2026-04-26 19:45 55.96486 11.01077 14403 ft 426 kts 128°
2026-04-26 19:46 55.94677 11.05172 14157 ft 414 kts 128°
2026-04-26 19:46 55.92920 11.09141 13905 ft 403 kts 128°
2026-04-26 19:46 55.91195 11.13030 13639 ft 397 kts 128°
2026-04-26 19:46 55.89488 11.16872 13379 ft 395 kts 128°
2026-04-26 19:47 55.87789 11.20694 13241 ft 392 kts 128°
2026-04-26 19:47 55.86649 11.23257 13267 ft 387 kts 128°
2026-04-26 19:47 55.84488 11.28115 13272 ft 372 kts 128°
2026-04-26 19:47 55.82886 11.31709 13285 ft 370 kts 128°
2026-04-26 19:48 55.81275 11.35301 13268 ft 371 kts 128°
2026-04-26 19:48 55.79661 11.38892 13270 ft 372 kts 128°
2026-04-26 19:48 55.78168 11.42622 13270 ft 371 kts 117°
2026-04-26 19:48 55.77097 11.46775 13264 ft 370 kts 113°
2026-04-26 19:49 55.75871 11.50788 13261 ft 370 kts 120°
2026-04-26 19:49 55.74458 11.54613 13271 ft 371 kts 124°
2026-04-26 19:49 55.72962 11.58348 13196 ft 371 kts 125°
2026-04-26 19:49 55.71460 11.62055 12929 ft 369 kts 124°
2026-04-26 19:50 55.69989 11.65763 12542 ft 366 kts 124°
2026-04-26 19:50 55.68555 11.69486 12040 ft 364 kts 123°
2026-04-26 19:50 55.67156 11.73213 11552 ft 363 kts 122°
2026-04-26 19:50 55.65777 11.76940 11049 ft 361 kts 122°
2026-04-26 19:51 55.64410 11.80652 10560 ft 359 kts 122°
2026-04-26 19:51 55.63065 11.84296 10405 ft 347 kts 122°
2026-04-26 19:51 55.61770 11.87787 10262 ft 330 kts 122°
2026-04-26 19:51 55.60535 11.91099 9825 ft 317 kts 122°
2026-04-26 19:52 55.59333 11.94325 9197 ft 311 kts 122°
2026-04-26 19:52 55.58153 11.97484 8615 ft 305 kts 122°
2026-04-26 19:52 55.56995 12.00585 8232 ft 301 kts 122°
2026-04-26 19:52 55.55860 12.03618 7902 ft 288 kts 123°
2026-04-26 19:53 55.54782 12.06481 7556 ft 274 kts 123°
2026-04-26 19:53 55.53734 12.09261 7024 ft 270 kts 123°
2026-04-26 19:53 55.52702 12.11995 6580 ft 266 kts 123°
2026-04-26 19:53 55.51681 12.14695 6161 ft 264 kts 123°
2026-04-26 19:54 55.50663 12.17392 5772 ft 263 kts 123°
2026-04-26 19:54 55.49668 12.20025 5615 ft 252 kts 123°
2026-04-26 19:54 55.48719 12.22537 5446 ft 242 kts 123°
2026-04-26 19:54 55.47760 12.25070 4776 ft 255 kts 123°
2026-04-26 19:55 55.46766 12.27696 4300 ft 258 kts 124°
2026-04-26 19:55 55.45820 12.30184 4224 ft 236 kts 124°
2026-04-26 19:55 55.45011 12.32584 4140 ft 225 kts 116°
2026-04-26 19:55 55.44665 12.35218 4072 ft 221 kts 84°
2026-04-26 19:56 55.44888 12.37891 3928 ft 222 kts 69°
2026-04-26 19:56 55.45751 12.39956 3599 ft 208 kts 31°
2026-04-26 19:56 55.46927 12.41471 3308 ft 212 kts 36°
2026-04-26 19:56 55.48042 12.43156 3043 ft 205 kts 37°
2026-04-26 19:57 55.49067 12.44739 2741 ft 188 kts 37°
2026-04-26 19:57 55.50010 12.46188 2483 ft 173 kts 37°
2026-04-26 19:57 55.50888 12.47535 2249 ft 161 kts 37°
2026-04-26 19:57 55.51707 12.48792 2048 ft 153 kts 36°
2026-04-26 19:58 55.52500 12.50008 1837 ft 150 kts 37°
2026-04-26 19:58 55.53286 12.51216 1624 ft 149 kts 37°
2026-04-26 19:58 55.54072 12.52423 1417 ft 150 kts 38°
2026-04-26 19:58 55.54860 12.53635 1213 ft 150 kts 37°
2026-04-26 19:59 55.55646 12.54844 1009 ft 150 kts 38°
2026-04-26 19:59 55.56425 12.56044 799 ft 147 kts 39°
2026-04-26 19:59 55.57186 12.57216 600 ft 143 kts 40°
2026-04-26 19:59 55.57924 12.58355 409 ft 139 kts 41°
2026-04-26 20:00 55.58643 12.59463 219 ft 135 kts 43°
2026-04-26 20:00 55.59350 12.60555 40 ft 134 kts 42°
2026-04-26 20:00 55.59943 12.61468 18 ft 75 kts 40°
2026-04-26 20:00 55.60238 12.61927 18 ft 60 kts 41°
2026-04-26 20:01 55.60539 12.62326 20 ft 39 kts 20°
2026-04-26 20:01 55.60662 12.62355 18 ft 0 kts 10°
2026-04-26 20:01 55.60663 12.62355 18 ft 0 kts 10°
2026-04-26 20:02 55.60742 12.62383 18 ft 31 kts 12°
2026-04-26 20:02 55.60807 12.62434 19 ft 29 kts 31°
2026-04-26 20:03 55.61004 12.62732 17 ft 23 kts 40°
2026-04-26 20:03 55.61087 12.62861 17 ft 24 kts 41°
2026-04-26 20:03 55.61259 12.63126 17 ft 26 kts 43°
2026-04-26 20:03 55.61396 12.63343 19 ft 27 kts 40°
2026-04-26 20:04 55.61491 12.63483 17 ft 27 kts 41°
2026-04-26 20:04 55.61635 12.63707 17 ft 28 kts 41°
2026-04-26 20:04 55.61783 12.63935 17 ft 29 kts 42°
2026-04-26 20:04 55.61948 12.64137 17 ft 29 kts 25°
2026-04-26 20:05 55.62134 12.64290 18 ft 30 kts 25°
2026-04-26 20:05 55.62326 12.64433 17 ft 29 kts
2026-04-26 20:05 55.62490 12.64467 17 ft 16 kts 328°
2026-04-26 20:05 55.62551 12.64316 17 ft 14 kts 304°
2026-04-26 20:06 55.62604 12.64180 17 ft 14 kts 304°
2026-04-26 20:06 55.62676 12.63989 17 ft 21 kts 303°
2026-04-26 20:06 55.62761 12.63946 17 ft 13 kts 28°
2026-04-26 20:06 55.62826 12.63943 17 ft 10 kts 302°
2026-04-26 20:07 55.62880 12.63934 17 ft 0 kts 12°